CW5346 Weather Reports


Display with metric or nautical units.
time (UTC)temp
F
wind
direction
speed
MPH
gust
MPH
rain 1hr
in
rain 24hr
in
rain mn
in
humidity
%
barometer
mb
20260508113603 44 331 0.0 0.0 0.00 0.04 0.04 94 1013.0
20260508112603 44 331 0.0 0.0 0.00 0.04 0.04 94 1012.8
20260508111603 44 331 0.0 0.0 0.00 0.04 0.04 94 1012.7
20260508110602 43 331 0.0 0.0 0.00 0.04 0.04 94 1012.7
20260508105625 43 331 0.0 0.0 0.00 0.04 0.04 94 1012.6
20260508104603 42 331 0.0 0.0 0.00 0.04 0.04 94 1012.6
20260508103603 42 331 0.0 0.0 0.00 0.04 0.04 95 1012.5
20260508102632 42 331 0.0 0.0 0.00 0.04 0.04 94 1012.3
20260508101603 41 331 0.0 0.0 0.00 0.04 0.04 94 1012.3
20260508100603 41 331 0.0 0.0 0.00 0.04 0.04 93 1012.1
20260508095623 42 331 0.0 0.0 0.00 0.04 0.04 93 1012.0
20260508094603 42 331 0.0 0.0 0.00 0.04 0.04 93 1012.0
20260508093603 43 331 0.0 0.0 0.00 0.04 0.04 93 1012.0
20260508092603 43 331 0.0 0.0 0.00 0.04 0.04 93 1011.9
20260508091603 43 331 0.0 0.0 0.00 0.04 0.04 93 1011.9
20260508090602 44 331 0.0 0.0 0.00 0.04 0.04 93 1011.9
20260508085603 44 331 0.0 0.0 0.00 0.04 0.04 93 1011.7
20260508084602 44 331 0.0 0.0 0.00 0.04 0.04 93 1011.7
20260508083603 44 331 0.0 0.0 0.00 0.04 0.04 93 1011.5
20260508081625 45 331 0.0 0.0 0.00 0.04 0.04 92 1011.4
20260508080604 45 331 0.0 0.0 0.00 0.04 0.04 92 1011.4
20260508075605 45 331 0.0 0.0 0.00 0.04 0.04 92 1011.4
20260508074604 45 331 0.0 0.0 0.00 0.05 0.04 91 1011.3
20260508073604 45 331 0.0 0.0 0.00 0.05 0.04 91 1011.4
20260508072604 45 331 0.0 0.0 0.00 0.05 0.04 91 1011.6
20260508071604 45 331 0.0 0.0 0.00 0.05 0.04 91 1011.3
20260508070605 45 331 0.0 4.0 0.00 0.05 0.04 90 1011.6
20260508065604 45 330 0.0 3.0 0.03 0.06 0.04 90 1011.9
20260508064603 45 330 0.0 1.0 0.02 0.06 0.03 90 1011.8
20260508063604 46 331 0.0 0.0 0.02 0.08 0.03 90 1011.7
20260508062604 46 331 0.0 0.0 0.01 0.07 0.02 88 1011.8
20260508061605 47 331 0.0 0.0 0.01 0.08 0.02 86 1011.9
20260508060625 48 331 0.0 0.0 0.00 0.09 0.01 83 1011.9
20260508055625 49 327 3.0 12.0 0.01 0.09 0.01 78 1012.0
20260508054604 49 334 1.0 6.0 0.00 0.10 0.00 69 1011.9
20260508053604 47 335 1.0 6.0 0.00 0.11 0.00 74 1011.3
20260508052604 45 336 0.0 0.0 0.00 0.12 0.00 85 1010.9
20260508051605 45 336 0.0 0.0 0.00 0.12 0.00 85 1009.4
20260508050603 45 336 0.0 0.0 0.00 0.12 0.00 84 1009.3
20260508045604 45 336 0.0 0.0 0.00 0.12 0.00 84 1009.4
20260508044604 45 336 0.0 0.0 0.00 0.12 0.00 83 1009.2
20260508043604 45 336 0.0 0.0 0.00 0.12 0.00 84 1009.2
20260508042604 45 336 0.0 0.0 0.00 0.12 0.00 83 1009.6
20260508041604 45 336 0.0 0.0 0.00 0.12 0.00 83 1009.4
20260508040625 45 336 0.0 0.0 0.00 0.12 0.00 83 1009.3
20260508035603 45 336 0.0 0.0 0.00 0.12 0.12 82 1009.4
20260508034604 45 336 0.0 0.0 0.00 0.12 0.12 82 1009.4
20260508033604 45 336 0.0 0.0 0.00 0.12 0.12 82 1009.3
20260508032604 45 336 0.0 0.0 0.00 0.12 0.12 83 1009.4
20260508031625 45 336 0.0 0.0 0.00 0.12 0.12 82 1009.7
20260508030625 44 336 0.0 0.0 0.00 0.12 0.12 81 1009.6
20260508025604 44 336 0.0 0.0 0.00 0.12 0.12 81 1009.6
20260508024604 45 336 0.0 0.0 0.00 0.12 0.12 81 1009.6
20260508023604 45 336 0.0 0.0 0.00 0.12 0.12 80 1009.7
20260508022604 45 336 0.0 0.0 0.00 0.12 0.12 79 1009.7
20260508021647 46 336 0.0 0.0 0.00 0.12 0.12 78 1009.6
20260508020604 46 336 0.0 0.0 0.00 0.12 0.12 76 1009.6
20260508015646 47 336 0.0 0.0 0.00 0.12 0.12 75 1009.5
20260508014625 47 336 0.0 0.0 0.00 0.12 0.12 74 1009.6
20260508013604 48 336 0.0 0.0 0.00 0.12 0.12 73 1009.5
20260508012604 49 336 0.0 0.0 0.00 0.12 0.12 71 1009.5
20260508011624 49 336 0.0 0.0 0.00 0.12 0.12 69 1009.4
20260508010625 50 336 0.0 0.0 0.00 0.12 0.12 67 1009.3
20260508005603 51 336 0.0 0.0 0.00 0.12 0.12 66 1009.0
20260508004604 52 336 0.0 0.0 0.00 0.14 0.12 63 1008.9
20260508003625 52 336 0.0 0.0 0.00 0.15 0.12 62 1008.8
20260508002604 53 336 0.0 0.0 0.00 0.15 0.12 58 1008.6
20260508001625 55 336 0.0 0.0 0.00 0.15 0.12 57 1008.6
20260508000603 56 336 0.0 0.0 0.00 0.15 0.12 54 1008.5
20260507235604 56 336 0.0 0.0 0.00 0.15 0.12 51 1008.1
20260507234625 57 336 0.0 0.0 0.00 0.15 0.12 50 1008.2
20260507233604 58 336 0.0 0.0 0.00 0.15 0.12 52 1008.1
20260507232604 59 336 0.0 6.0 0.00 0.15 0.12 47 1008.0
20260507231646 60 335 0.0 2.0 0.00 0.15 0.12 44 1008.0
20260507230605 60 336 0.0 4.0 0.00 0.15 0.12 42 1008.0
20260507225625 60 331 1.0 6.0 0.00 0.15 0.12 42 1008.0
20260507224625 60 326 0.0 3.0 0.00 0.15 0.12 46 1007.9
20260507223604 60 331 2.0 6.0 0.00 0.15 0.12 40 1007.9
20260507222604 60 341 1.0 8.0 0.00 0.15 0.12 41 1008.0
20260507221624 61 348 1.0 10.0 0.00 0.15 0.12 42 1007.8
20260507220604 61 342 0.0 8.0 0.00 0.15 0.12 39 1008.0
20260507215603 61 331 4.0 9.0 0.00 0.15 0.12 38 1008.0
20260507214604 61 349 2.0 6.0 0.00 0.15 0.12 40 1008.1
20260507213603 61 354 3.0 11.0 0.00 0.15 0.12 38 1008.0
20260507212604 62 348 2.0 8.0 0.00 0.15 0.12 40 1007.8
20260507211604 62 10 2.0 10.0 0.00 0.15 0.12 39 1007.8
20260507210604 63 258 3.0 7.0 0.00 0.15 0.12 40 1008.0
20260507205625 63 301 1.0 12.0 0.00 0.15 0.12 39 1007.7
20260507204603 63 332 2.0 10.0 0.00 0.15 0.12 41 1007.7
20260507203604 63 2 2.0 9.0 0.00 0.15 0.12 38 1007.6
20260507202625 63 314 2.0 13.0 0.00 0.15 0.12 40 1007.7
20260507201604 63 350 1.0 10.0 0.00 0.15 0.12 38 1007.6
20260507200604 63 18 2.0 11.0 0.00 0.15 0.12 40 1007.7
20260507195624 62 331 0.0 12.0 0.00 0.15 0.12 41 1007.7
20260507194604 61 337 1.0 9.0 0.00 0.15 0.12 41 1007.8
20260507193604 61 338 4.0 13.0 0.00 0.16 0.12 39 1008.0
20260507192604 62 343 2.0 9.0 0.00 0.16 0.12 42 1008.1
20260507191604 62 357 6.0 13.0 0.00 0.17 0.12 41 1008.3
20260507190646 62 273 2.0 14.0 0.00 0.18 0.12 39 1008.4
20260507185603 62 332 3.0 13.0 0.00 0.19 0.12 38 1008.5
20260507184604 62 333 3.0 17.0 0.00 0.20 0.12 42 1008.3
20260507183604 62 353 5.0 10.0 0.00 0.20 0.12 39 1008.5
20260507182603 62 323 3.0 9.0 0.00 0.20 0.12 39 1008.5
20260507181625 62 354 1.0 9.0 0.00 0.20 0.12 42 1008.6
20260507180604 61 349 2.0 9.0 0.00 0.20 0.12 41 1008.9
20260507175625 61 348 4.0 7.0 0.00 0.20 0.12 43 1008.9
20260507174603 61 35 2.0 11.0 0.00 0.20 0.12 49 1009.0
20260507173604 60 348 4.0 8.0 0.00 0.20 0.12 43 1009.2
20260507172603 60 327 5.0 9.0 0.00 0.20 0.12 41 1009.5
20260507171603 61 5 1.0 10.0 0.00 0.21 0.12 49 1009.5
20260507170604 61 352 2.0 11.0 0.00 0.21 0.12 46 1009.5
20260507165604 59 348 2.0 9.0 0.00 0.21 0.12 50 1009.8
20260507164625 60 331 2.0 9.0 0.00 0.22 0.12 46 1010.1
20260507163625 59 354 1.0 8.0 0.00 0.22 0.12 44 1010.1
20260507162603 59 347 2.0 9.0 0.00 0.23 0.12 45 1010.2
20260507161604 58 327 4.0 13.0 0.00 0.24 0.12 40 1010.4
20260507160603 58 339 3.0 9.0 0.00 0.24 0.12 47 1010.6
20260507155604 58 321 3.0 10.0 0.00 0.24 0.12 49 1010.5
20260507154603 58 332 2.0 9.0 0.00 0.24 0.12 47 1010.7
20260507153604 58 47 2.0 8.0 0.00 0.24 0.12 51 1010.6
20260507152604 57 12 2.0 8.0 0.00 0.24 0.12 50 1010.8
20260507151603 57 25 2.0 9.0 0.00 0.24 0.12 48 1011.0
20260507150604 57 326 3.0 11.0 0.00 0.24 0.12 48 1011.0
20260507145603 56 339 6.0 19.0 0.00 0.24 0.12 46 1011.1
20260507144604 56 31 2.0 11.0 0.00 0.24 0.12 50 1011.1
20260507143604 56 316 4.0 9.0 0.00 0.24 0.12 50 1011.0
20260507142604 55 321 5.0 12.0 0.00 0.24 0.12 50 1011.0
20260507141603 55 313 6.0 12.0 0.00 0.24 0.12 51 1010.9
20260507140603 54 5 6.0 10.0 0.00 0.24 0.12 52 1011.3
20260507135625 54 354 4.0 13.0 0.00 0.24 0.12 52 1011.1
20260507134604 53 0 2.0 12.0 0.00 0.24 0.12 55 1011.1
20260507133603 53 338 3.0 11.0 0.00 0.24 0.12 55 1011.1
20260507132624 52 348 3.0 10.0 0.00 0.24 0.12 59 1011.2
20260507131604 52 337 1.0 11.0 0.00 0.24 0.12 66 1011.2
20260507130603 51 329 2.0 6.0 0.00 0.24 0.12 64 1011.1
20260507125604 50 317 3.0 9.0 0.00 0.24 0.12 67 1011.0
20260507124603 51 298 2.0 11.0 0.00 0.24 0.12 74 1011.0
20260507123603 50 349 0.0 11.0 0.00 0.24 0.12 75 1010.9
20260507122603 50 355 2.0 12.0 0.00 0.24 0.12 81 1010.8
20260507121604 49 295 0.0 0.0 0.00 0.24 0.12 91 1010.9
20260507120603 49 294 0.0 0.0 0.00 0.24 0.12 91 1011.1
20260507115625 48 295 0.0 3.0 0.00 0.24 0.12 92 1010.9
20260507114624 48 292 0.0 9.0 0.00 0.24 0.12 92 1010.8